Wind_Speed
58 59 56 52 52 52 52 53 53 54 55 57 57 57 57 55 53 49 48 47 45 45 46 47 48 48 48 49 48 48 46 46 48 49 50 48 43 38 37 36 35 35 36 37 36 33 33 34 37 40 41 44 43 41 40 40 42 42 41 42 43 45 47 47 47 46 46 47 47 48 48 48 49 49 49 48 48 48 48 48 48 48 47 47 48 48
58 57 56 55 55 54 55 56 56 57 57 57 56 56 56 55 52 50 49 48 46 46 45 46 48 48 49 49 49 48 46 45 47 49 51 50 48 40 28 24 29 29 26 26 24 21 24 30 36 38 38 41 38 32 31 35 40 40 37 38 40 44 48 48 47 47 47 48 49 49 49 49 49 50 50 50 50 51 50 50 50 49 49 49 49 49
56 55 57 58 56 57 58 58 58 58 57 57 56 56 56 55 52 51 51 49 48 46 45 46 47 48 49 50 50 49 47 45 45 47 49 50 51 48 37 31 35 36 32 27 24 24 28 35 39 36 36 40 36 29 28 32 39 37 32 33 32 40 49 49 48 48 47 49 49 50 50 50 50 50 51 51 51 52 51 51 51 50 50 50 49 49
55 55 57 58 59 60 59 58 58 57 57 57 56 56 56 54 53 53 52 50 49 47 46 46 46 47 49 50 50 49 48 47 46 46 49 51 53 53 48 40 37 40 43 41 39 40 38 36 32 29 33 39 37 32 30 34 40 39 36 35 29 35 49 49 47 48 48 49 49 49 50 50 50 50 51 51 52 52 52 52 52 51 50 49 49 48
56 56 56 59 63 63 60 59 58 57 57 56 56 56 55 54 54 52 50 51 51 49 47 47 46 46 47 48 49 50 49 49 48 47 48 51 54 54 52 45 39 40 44 45 45 45 41 34 30 31 36 38 34 33 34 35 39 40 41 39 34 40 50 51 49 50 49 50 50 49 49 49 49 50 50 51 52 52 52 52 52 51 50 49 47 46
57 55 58 62 63 63 62 61 59 59 58 57 56 56 55 55 53 51 51 52 53 51 50 47 46 45 45 47 48 50 50 50 50 48 48 50 53 55 55 50 44 42 44 44 45 45 41 37 35 36 40 43 43 41 41 42 44 45 43 38 38 44 50 53 53 52 51 50 49 48 47 47 48 50 50 51 52 52 53 53 52 51 49 48 47 46
57 56 60 62 61 63 64 62 61 61 60 59 58 58 57 55 54 52 52 53 53 52 50 48 47 45 44 45 46 48 50 50 50 48 47 49 50 53 56 57 53 48 45 44 45 44 41 38 38 39 42 47 50 48 46 47 45 44 41 36 37 42 46 49 50 49 49 48 47 46 47 48 49 50 51 51 52 52 52 52 51 50 49 49 48 48
56 58 60 60 60 61 62 63 63 62 61 60 60 59 57 56 55 54 54 53 52 51 50 50 49 46 43 43 44 46 49 49 49 48 47 47 48 50 53 57 58 57 54 50 48 45 44 41 40 43 46 46 48 49 48 47 43 40 40 38 38 41 43 45 46 46 47 47 47 47 48 49 50 50 51 52 52 52 51 50 50 50 50 50 50 50
58 59 59 59 59 59 60 62 63 64 63 62 62 61 59 57 55 55 55 53 51 50 52 52 50 46 43 43 43 45 46 47 47 48 47 47 48 48 49 51 55 59 61 59 55 52 51 50 46 44 42 38 38 40 40 40 39 38 39 42 43 43 43 45 46 47 47 47 48 49 49 50 50 51 52 52 52 51 51 50 50 50 51 51 51 51
61 60 59 59 60 59 59 61 63 66 65 64 65 64 61 58 56 55 54 52 50 51 51 51 49 47 45 44 43 42 43 44 46 47 48 48 47 47 47 49 51 54 57 59 60 60 60 59 57 53 45 35 29 31 34 36 36 36 36 41 45 45 45 46 47 47 46 46 47 48 50 51 51 52 52 52 52 52 52 51 51 52 51 50 50 50
63 62 60 60 60 60 60 62 65 66 65 67 68 65 62 59 57 55 54 52 51 50 50 49 49 49 47 45 43 42 42 44 47 48 47 47 47 48 49 50 50 51 53 55 58 63 65 65 64 61 55 45 34 30 32 34 35 35 36 39 43 44 44 44 44 43 43 44 47 49 51 51 52 52 52 52 51 51 51 51 51 50 49 48 47 47
65 64 61 59 59 59 60 62 64 64 65 68 67 65 62 59 57 55 54 52 50 49 49 48 49 49 47 46 44 43 44 46 47 47 46 47 49 51 51 51 50 49 51 53 55 60 65 67 67 66 62 56 47 39 35 34 34 35 36 38 40 40 41 40 40 40 42 46 51 53 53 53 52 52 51 50 50 50 50 49 48 46 45 45 44 44
66 64 61 59 59 60 60 60 60 60 63 66 66 64 61 59 57 54 51 49 48 49 47 46 47 47 46 46 46 45 46 46 46 45 46 49 51 52 51 50 49 48 48 51 53 57 62 65 66 67 65 62 57 51 46 40 36 36 37 38 38 38 38 38 39 42 46 52 55 55 53 52 52 51 50 49 48 47 47 46 44 42 42 41 41 41
66 63 60 59 58 59 59 57 56 56 58 60 62 62 61 60 56 52 49 48 48 47 44 44 45 45 45 46 46 49 49 47 45 46 47 49 51 50 50 49 47 46 46 48 50 53 57 61 62 64 65 63 61 58 54 49 43 40 40 40 39 39 39 40 43 47 52 56 56 54 52 51 50 49 48 47 46 45 44 42 40 39 39 39 39 39
63 60 59 58 56 56 56 55 54 55 56 58 60 62 62 61 57 54 52 50 49 46 43 45 45 44 44 44 47 52 51 48 47 47 48 49 48 48 49 49 47 46 45 46 47 48 50 54 56 58 59 60 60 58 57 55 51 47 46 45 44 44 45 47 51 54 57 57 54 52 51 50 49 48 47 45 44 42 40 39 38 38 38 39 39 39
61 59 59 57 54 54 54 54 54 54 56 58 59 61 62 62 60 58 56 53 51 48 47 48 45 43 43 43 48 53 52 51 50 48 48 47 46 47 49 49 47 46 46 46 45 45 45 46 48 50 52 54 55 56 56 57 57 56 56 56 55 56 58 60 59 58 57 54 52 51 50 49 48 46 45 43 42 40 39 38 38 38 38 38 38 38
62 61 60 58 55 55 54 54 54 55 55 55 55 57 59 60 60 59 57 55 53 50 49 49 46 45 45 45 49 52 52 53 52 50 49 47 46 47 47 48 48 47 47 46 45 44 43 43 44 45 45 46 48 49 51 53 55 57 59 61 63 63 63 61 58 55 53 52 51 50 49 48 46 44 43 41 40 39 38 38 38 38 38 38 38 38
62 60 59 59 58 57 56 55 56 55 53 52 53 54 54 56 59 61 60 58 55 52 50 49 48 47 47 47 49 51 51 53 53 52 51 48 47 46 47 49 49 48 47 46 46 46 45 46 46 44 42 44 45 46 47 48 50 52 54 56 57 57 56 54 52 51 51 50 49 48 47 46 44 43 42 40 39 39 38 38 38 38 38 37 37 37
61 60 61 61 59 58 57 57 56 53 50 51 52 52 53 55 58 61 61 58 57 53 50 50 50 48 47 48 50 51 52 53 54 53 52 50 48 47 48 50 49 48 47 46 47 46 46 48 47 42 40 43 44 44 45 46 47 49 49 49 49 49 49 49 49 50 49 48 48 47 46 45 44 42 41 40 40 39 39 38 38 37 37 37 37 37
62 62 63 62 61 59 58 56 54 50 49 50 50 50 52 54 56 58 59 59 59 56 53 53 52 49 48 50 52 52 53 53 53 53 52 51 49 49 50 49 48 47 46 47 47 46 47 49 47 43 41 42 42 42 43 45 46 47 47 48 47 47 47 48 48 48 47 47 47 46 45 43 42 41 40 39 39 39 38 38 37 37 37 37 37 37
62 62 62 62 60 58 55 53 51 50 49 49 47 47 49 50 51 54 57 59 60 58 56 55 54 52 52 54 55 53 52 52 51 52 52 51 51 50 49 48 47 47 45 46 47 47 48 49 49 46 43 43 42 39 39 41 42 43 44 46 47 47 47 47 47 47 46 46 45 44 43 41 40 40 40 39 39 38 38 38 38 38 38 38 37 38
63 62 61 60 58 56 54 52 51 50 49 49 48 49 49 48 49 51 54 57 59 59 58 57 56 55 55 56 56 54 52 50 50 51 51 51 51 50 48 47 46 45 44 44 46 48 49 50 50 48 44 43 42 36 32 33 36 39 43 45 45 46 46 45 45 45 45 44 43 42 41 40 40 40 40 39 39 39 39 39 39 38 38 38 38 39
62 62 60 59 57 55 52 50 50 50 50 50 50 50 50 50 50 51 53 55 58 59 58 58 57 57 58 58 57 54 52 50 49 50 51 52 52 50 48 47 46 45 43 44 46 48 49 50 50 49 47 46 44 40 36 36 38 42 45 45 45 45 45 45 45 45 44 43 42 41 41 40 40 40 40 40 40 40 40 40 39 39 39 39 40 40
60 60 59 59 57 55 53 53 52 51 50 49 48 49 49 49 51 53 54 55 57 59 60 60 60 59 59 59 58 55 52 50 49 49 51 51 51 50 49 48 47 45 44 43 45 46 48 48 48 49 49 48 47 46 44 42 42 41 42 43 43 44 44 44 44 44 43 43 42 41 40 40 40 40 41 41 41 41 41 41 40 40 41 41 41 41
60 59 58 57 56 54 52 51 49 47 46 46 46 48 48 48 49 51 51 53 55 58 60 61 62 61 60 60 59 56 53 51 49 49 50 51 51 51 50 49 47 46 44 43 43 44 45 46 48 49 50 50 49 48 46 43 40 38 39 40 41 42 43 43 43 43 43 42 41 40 40 40 41 41 41 41 42 42 42 42 42 42 42 43 43 43
60 58 56 55 53 50 48 45 43 42 42 43 44 45 46 46 48 48 49 51 53 55 58 61 62 62 60 60 59 56 54 52 51 50 50 50 51 51 50 49 48 46 43 42 42 43 44 46 47 48 50 51 51 50 48 44 41 41 42 43 43 42 42 42 42 42 42 42 41 41 41 42 42 42 42 42 43 44 44 44 44 44 45 45 45 45
60 58 57 55 52 51 49 46 44 42 42 42 42 44 45 46 47 48 48 49 51 53 56 59 61 61 60 60 59 57 55 54 53 51 51 50 50 50 49 48 47 44 42 42 43 44 44 45 46 47 47 49 49 49 49 47 46 46 46 44 42 40 39 40 41 41 42 43 43 43 42 42 42 42 43 44 45 45 45 46 46 47 47 47 48 48
58 57 56 54 53 52 49 47 46 46 45 45 44 45 45 45 45 46 46 48 50 51 53 55 58 60 60 59 59 57 55 54 54 53 52 51 49 49 48 47 46 44 43 43 44 45 44 43 44 45 46 46 47 47 48 48 47 47 46 45 43 40 39 40 41 43 44 45 45 44 43 43 42 43 44 45 46 46 47 48 48 49 49 50 50 50
55 54 53 52 51 50 48 48 48 48 48 47 47 46 46 45 44 44 44 46 47 49 51 53 55 57 59 59 58 57 55 54 54 53 52 50 49 48 47 46 45 44 44 45 45 45 43 42 41 41 42 43 44 45 46 46 45 44 45 45 44 42 41 41 42 43 44 45 45 44 44 44 44 44 45 46 47 48 49 50 50 50 51 51 51 52
52 52 52 51 49 48 48 48 47 47 47 47 47 47 46 45 45 45 46 46 47 48 50 51 52 54 57 57 57 56 55 53 52 52 51 49 48 47 47 46 45 44 45 45 44 43 42 42 41 40 38 39 41 43 43 41 40 39 41 43 42 40 39 39 40 42 43 45 46 46 46 46 46 46 47 48 50 51 51 52 51 51 52 52 53 54
51 51 50 49 48 47 47 47 46 46 47 47 47 47 46 45 45 45 47 48 48 49 49 49 51 52 53 54 54 54 54 54 52 51 50 50 49 48 47 46 45 44 44 43 43 43 42 42 41 39 36 35 37 39 38 36 37 36 37 39 39 37 37 39 40 42 44 46 47 48 48 48 48 48 49 51 52 53 54 53 53 53 54 54 55 56
51 50 49 48 47 47 47 47 47 46 47 48 47 46 45 44 44 44 45 47 49 51 51 50 50 50 51 51 52 52 53 54 53 52 51 50 50 49 48 47 45 44 44 43 43 43 43 41 38 37 37 38 39 38 36 37 40 41 40 41 40 39 41 43 45 47 48 49 50 50 51 52 51 52 52 53 54 55 55 55 55 56 57 57 58 58
51 50 50 49 48 47 47 48 47 48 48 47 46 45 44 44 43 43 44 46 49 51 53 52 50 50 51 51 51 51 52 53 54 54 53 52 51 50 48 48 46 46 46 45 44 44 44 40 38 40 43 45 45 43 42 42 43 45 47 47 46 46 47 49 51 52 52 53 53 53 54 54 54 54 54 55 56 57 57 57 58 58 59 59 59 60
53 52 51 50 49 49 49 48 48 49 48 47 46 46 46 45 44 44 44 46 47 50 53 54 53 52 52 52 51 51 52 54 55 55 55 53 52 50 49 48 48 48 47 46 45 46 45 42 42 44 46 48 48 48 49 49 48 48 50 50 49 49 50 51 53 54 54 54 55 56 57 56 56 57 57 57 58 59 59 59 59 60 60 60 61 61
53 53 52 51 51 51 50 50 50 49 47 46 47 48 47 47 46 46 46 47 47 49 51 54 55 54 53 53 53 52 52 53 53 54 54 54 53 52 50 50 49 49 48 47 48 48 46 44 44 46 48 51 52 52 53 52 51 50 50 50 51 51 51 52 53 54 55 55 56 57 58 58 58 58 59 60 60 60 60 60 61 61 62 62 63 63
52 53 53 53 53 53 51 51 50 49 48 48 50 49 49 48 48 47 47 48 48 49 51 53 56 56 55 54 54 53 52 52 52 53 54 54 54 53 52 52 51 51 50 49 49 49 47 46 47 49 51 53 54 55 55 54 52 51 51 50 50 51 52 52 53 55 55 56 56 57 58 58 59 60 61 62 62 62 62 62 62 63 64 64 64 63
53 53 53 53 54 53 53 53 52 51 51 52 52 51 51 51 50 49 49 49 49 50 51 52 55 57 57 56 55 55 54 53 52 53 54 55 56 56 55 54 53 53 52 50 49 49 49 50 51 53 53 53 54 54 55 54 53 53 52 51 51 52 53 54 55 56 57 57 58 58 59 60 61 62 63 64 63 63 63 63 64 64 63 62 61 60
52 52 53 54 54 54 55 55 54 53 53 53 52 52 52 51 51 50 50 51 51 50 51 52 54 57 59 59 58 57 56 54 53 54 55 57 58 58 58 58 57 56 55 53 53 53 53 53 54 55 55 55 56 55 54 52 53 53 52 52 52 53 55 56 58 58 59 60 60 60 61 62 63 65 66 66 65 64 64 63 62 60 59 58 57 56
51 51 52 53 53 53 53 53 53 53 53 53 53 53 52 51 52 51 51 51 51 52 52 53 53 56 59 61 60 59 58 56 56 57 59 59 59 59 60 60 60 59 58 57 56 56 56 56 54 54 56 58 59 58 55 54 54 53 52 53 54 55 57 59 60 61 61 62 62 63 63 64 65 68 68 66 64 62 61 59 57 56 55 54 54 53
51 51 51 51 51 51 51 52 52 52 52 53 53 52 52 52 52 51 51 51 52 53 55 54 54 56 58 61 62 61 60 61 61 61 61 60 59 59 60 60 60 60 59 58 57 57 57 56 56 56 58 59 59 58 57 56 56 55 54 55 56 57 59 61 62 63 63 63 64 64 65 66 67 68 66 63 60 58 56 54 52 52 52 52 52 53
51 51 51 51 51 51 51 51 52 52 52 53 53 53 53 53 52 51 52 52 53 55 56 56 56 56 56 60 64 64 64 64 64 63 61 60 60 60 60 60 60 60 59 58 58 58 57 57 58 59 59 59 58 57 56 56 56 55 56 56 57 59 61 63 63 64 64 65 65 65 65 65 65 63 61 58 56 53 51 49 49 51 52 53 53 53
50 50 51 51 52 51 52 52 52 53 53 53 54 54 54 54 53 53 55 55 57 58 57 56 56 56 56 60 64 66 66 66 65 64 62 60 60 61 60 60 60 59 59 58 58 58 58 58 59 59 59 58 57 56 56 56 55 56 56 57 59 61 63 63 63 64 65 65 64 62 61 61 60 58 56 53 50 49 48 48 50 52 53 53 53 52
48 49 50 50 51 51 52 53 53 54 54 55 56 57 56 55 55 57 58 58 59 59 58 57 56 56 57 59 62 65 67 67 65 64 63 61 60 59 58 59 59 58 58 57 57 57 57 58 58 59 59 58 56 56 56 56 55 56 57 59 60 61 62 61 61 62 62 61 60 58 58 58 57 55 52 49 48 48 49 50 51 52 52 52 51 51
48 48 49 50 51 52 53 53 54 56 57 57 58 58 58 57 58 59 59 59 58 58 58 56 56 56 56 58 61 64 66 66 65 64 63 61 59 57 56 56 56 56 56 55 55 56 56 57 58 58 57 56 56 56 55 55 55 56 57 57 58 58 58 58 58 58 58 58 58 57 57 56 53 51 49 48 48 49 50 50 51 51 51 51 51 51
48 49 50 50 51 51 52 53 55 57 57 56 56 57 57 56 56 57 58 57 56 57 56 55 55 55 55 56 59 61 63 65 64 63 62 60 58 56 55 54 54 53 53 53 54 55 56 56 57 56 55 55 55 53 53 53 54 55 55 54 54 55 55 56 56 56 57 57 57 56 53 51 49 48 48 48 48 49 49 49 49 50 50 51 51 51
48 49 49 50 50 51 51 52 53 54 53 52 52 53 54 53 52 53 54 54 53 53 53 53 53 53 53 55 57 58 61 62 62 61 60 59 58 56 55 54 53 52 52 53 54 54 55 55 55 55 54 54 52 51 51 52 52 53 53 53 53 54 55 55 56 56 56 56 55 52 50 49 49 48 48 48 48 48 48 48 48 49 51 52 52 52
47 47 48 48 48 48 49 49 50 50 49 49 49 50 51 50 50 50 52 52 50 50 51 51 52 52 53 54 55 57 59 60 60 59 58 58 58 57 55 53 52 52 52 53 53 54 54 54 54 53 53 52 51 50 50 51 52 53 53 54 54 54 54 54 53 52 52 53 52 50 49 49 49 49 49 48 48 47 47 47 49 51 52 53 53 53
45 45 45 46 46 46 46 46 47 47 47 46 46 47 47 48 48 49 49 49 48 48 49 50 51 51 52 53 54 55 57 58 58 58 57 57 57 56 55 53 52 52 52 52 53 53 53 53 53 52 52 51 51 50 51 52 53 54 54 53 53 52 52 50 49 48 49 51 51 50 49 49 49 50 49 48 47 47 47 49 50 52 53 54 54 54
41 41 42 43 43 43 43 43 43 43 43 42 41 41 42 43 44 45 45 45 46 47 48 49 50 51 52 52 53 54 55 56 56 55 55 55 55 54 54 53 52 52 51 52 52 52 52 52 52 52 52 52 51 51 52 53 53 54 53 51 50 49 49 48 48 49 49 50 51 50 49 49 49 49 49 48 48 48 49 51 52 53 54 55 55 54
36 36 37 38 39 39 39 39 39 38 37 37 37 37 38 39 40 41 42 43 44 46 48 48 48 49 50 50 51 52 53 53 53 53 53 53 53 53 52 52 51 51 51 51 51 51 51 51 52 53 52 51 51 51 51 52 53 53 50 48 47 47 48 48 49 49 49 50 50 50 50 49 49 48 48 48 49 50 51 52 54 55 55 55 55 54
31 32 32 33 35 36 36 36 36 35 35 36 36 36 36 36 37 39 40 41 43 44 45 46 46 47 47 48 48 49 50 50 51 51 51 52 51 51 51 50 50 50 49 49 49 49 50 51 51 52 51 50 50 50 50 50 51 51 48 47 47 47 48 48 48 48 49 49 48 48 48 48 48 48 48 48 48 50 51 52 53 54 54 53 53 53
Wind_Direction
226 226 226 225 224 223 222 223 223 223 224 226 226 227 228 229 228 228 229 230 229 228 228 227 226 224 224 225 227 228 227 225 224 223 219 215 215 227 244 252 256 260 261 261 263 266 272 277 276 276 274 271 269 271 276 278 277 274 275 276 275 273 271 270 270 270 271 271 272 273 273 274 276 278 281 282 284 285 286 286 286 286 287 287 287 287
226 225 225 224 223 221 220 220 221 221 223 224 225 226 228 227 227 226 227 229 229 229 228 227 226 224 223 224 226 228 227 225 224 223 221 216 214 220 230 237 241 246 251 260 265 266 268 264 262 265 269 268 270 279 288 285 277 273 273 274 274 274 273 271 270 270 271 273 273 274 274 276 277 279 281 282 284 285 286 286 286 287 287 287 288 288
226 225 224 224 223 222 221 220 220 221 222 224 225 226 227 227 225 225 225 226 228 228 228 228 227 225 224 224 225 227 228 226 223 223 223 219 217 221 224 219 217 217 216 223 233 235 240 243 245 250 258 263 268 281 289 276 268 267 266 265 269 274 274 271 271 271 272 273 273 274 275 277 279 280 282 283 284 285 286 286 287 288 288 289 289 290
224 224 224 224 223 223 222 222 221 222 223 224 225 226 227 226 224 224 224 225 226 227 227 228 228 227 225 224 225 227 227 227 223 221 222 221 219 221 225 224 216 213 211 212 216 220 225 234 243 248 252 259 263 269 273 266 263 262 260 260 259 263 267 268 270 271 272 273 274 275 277 279 280 281 282 283 284 285 286 287 287 288 289 290 291 291
221 222 222 223 223 223 222 222 222 222 223 224 225 225 226 225 224 223 224 225 225 225 225 227 228 227 227 225 225 226 226 226 224 220 219 222 222 220 221 223 219 215 214 213 216 218 219 224 235 242 244 249 251 253 257 261 265 264 261 259 253 252 259 265 269 271 272 273 274 275 278 280 281 282 283 284 285 286 286 287 288 289 290 291 292 291
219 220 221 222 221 221 221 221 221 221 221 222 224 224 224 224 223 222 222 224 224 224 224 225 227 228 228 226 226 226 226 226 226 223 220 220 223 221 219 219 217 215 214 214 217 219 219 219 222 228 237 242 243 247 253 259 264 265 262 256 251 253 260 266 268 269 271 272 274 276 279 281 282 283 285 286 286 286 287 288 288 289 290 290 290 288
217 219 222 223 221 220 220 220 221 221 221 221 222 223 223 223 222 220 221 223 223 224 224 225 226 226 227 227 227 227 226 226 227 225 222 220 222 224 222 221 219 217 215 214 217 218 216 219 219 220 230 239 242 245 251 256 259 261 259 255 255 259 263 266 267 267 269 272 275 278 281 283 284 285 286 286 286 287 288 288 288 288 288 287 287 287
216 219 222 222 223 222 221 220 221 221 221 221 222 223 223 222 221 220 220 222 222 224 224 224 225 225 226 228 228 228 228 227 227 227 225 223 223 224 225 225 222 222 223 220 219 216 214 221 222 220 228 239 244 244 246 250 254 256 257 258 258 258 259 261 263 265 269 274 277 280 282 284 285 285 286 286 286 287 287 288 288 288 287 287 287 287
216 220 221 222 222 222 222 221 221 222 221 221 223 223 222 221 221 220 221 221 221 221 223 224 225 224 225 227 228 228 229 228 228 228 227 226 225 224 226 226 224 225 228 227 224 219 218 224 226 223 229 242 247 241 238 244 249 251 256 260 259 255 255 256 260 266 272 277 280 283 284 284 285 286 285 285 285 286 286 287 288 288 288 288 289 289
215 219 220 221 221 220 220 221 221 222 221 221 222 223 222 221 221 221 221 221 220 221 223 224 225 224 224 227 228 228 229 229 229 228 227 227 226 225 225 226 225 224 227 228 225 223 224 227 229 230 232 241 248 240 236 240 243 246 252 256 257 256 256 258 263 270 276 281 284 286 286 286 286 286 286 285 285 286 286 286 287 288 288 289 291 291
214 217 218 219 220 220 220 219 220 220 220 221 223 223 222 221 221 221 221 220 220 221 222 224 225 225 224 226 228 229 229 229 229 228 227 227 227 226 225 225 224 224 225 227 225 225 228 229 231 233 235 238 243 241 242 245 247 248 248 249 253 256 259 263 269 274 279 284 288 289 289 288 288 288 288 287 286 286 286 287 287 288 289 290 291 292
216 216 217 219 220 221 222 222 222 220 220 222 223 224 223 223 222 221 221 221 221 221 222 223 225 226 225 226 228 229 230 229 229 228 227 228 228 227 226 225 225 224 225 227 226 225 229 232 233 235 238 239 238 240 247 253 255 252 248 248 252 255 259 263 268 272 280 289 292 291 290 290 289 289 289 288 288 287 287 288 289 289 290 290 291 291
217 217 217 218 219 221 222 223 224 223 223 224 224 224 225 225 224 224 223 223 223 223 223 223 225 226 227 227 228 230 231 230 230 229 228 229 229 228 228 228 226 226 226 228 229 228 229 233 235 237 240 241 239 240 245 251 256 255 249 249 251 254 258 261 266 273 284 292 293 291 291 290 290 289 289 288 287 287 288 288 289 290 290 290 291 292
217 217 218 219 220 222 223 223 224 225 226 227 227 226 226 226 226 226 225 225 225 225 223 224 224 225 226 227 228 230 231 231 230 230 229 229 230 230 230 230 228 227 228 230 232 232 232 235 238 239 242 243 243 243 244 246 252 255 253 252 253 256 261 265 271 279 287 291 291 290 290 289 289 288 287 287 287 287 288 289 290 290 290 291 291 292
217 217 219 221 222 224 224 224 224 224 224 225 225 225 225 225 224 224 223 223 224 223 221 223 223 223 225 225 228 230 231 230 230 230 230 230 230 231 232 231 229 227 229 231 234 235 237 238 241 244 246 248 248 248 247 246 248 251 254 256 260 264 268 271 276 282 286 288 287 288 288 288 287 287 286 286 286 287 287 288 290 290 290 291 292 293
215 215 217 219 222 225 225 225 225 225 225 224 224 223 223 223 222 222 222 221 222 220 218 220 220 220 222 223 226 230 230 230 230 230 231 231 230 231 232 232 230 228 229 232 234 236 239 241 245 248 250 251 252 252 252 251 250 250 253 257 262 267 271 275 278 282 284 284 285 287 287 286 286 285 285 286 286 287 287 288 289 290 291 293 294 295
212 213 215 217 219 222 224 224 225 225 226 226 226 225 224 223 222 222 221 221 221 219 218 219 218 218 220 222 226 229 229 230 230 230 231 231 230 231 232 232 231 230 230 232 233 235 236 238 241 245 249 252 253 255 256 256 255 255 256 258 263 267 271 274 277 280 281 282 284 285 285 284 284 284 285 286 286 286 287 288 290 292 293 295 295 296
212 212 214 216 217 219 220 221 223 224 224 225 225 225 224 223 222 221 220 220 221 220 219 220 219 218 220 224 228 229 229 229 230 230 230 231 230 230 232 233 232 230 230 231 232 233 233 233 233 236 244 250 252 254 256 257 258 258 259 261 264 266 269 272 275 277 279 280 281 282 282 282 282 283 284 285 286 287 288 289 291 293 294 294 296 297
211 212 214 215 217 218 219 220 221 222 223 224 224 223 222 221 221 221 219 219 220 219 219 220 220 219 220 224 228 228 228 228 228 229 229 229 229 230 231 232 232 230 229 231 232 233 233 234 233 234 241 247 251 254 256 259 259 258 259 262 265 266 268 271 273 275 277 278 279 279 280 280 280 282 283 284 285 286 287 289 290 291 292 294 295 297
210 212 214 215 216 218 219 220 221 221 222 224 224 223 223 221 220 220 218 217 218 218 217 219 219 218 220 224 227 227 227 227 228 229 229 229 229 230 231 232 232 231 229 230 232 233 233 235 236 236 238 243 250 255 258 260 261 259 259 262 265 267 268 270 272 273 274 276 277 278 278 279 280 282 283 284 285 286 287 288 289 290 292 293 295 297
209 212 215 216 218 219 220 221 221 221 222 222 222 223 224 224 223 222 219 217 217 217 216 218 218 218 220 224 226 227 228 228 229 230 231 231 231 231 232 233 233 232 230 230 231 232 232 235 237 237 238 241 246 254 261 264 263 261 260 261 263 265 266 267 269 271 274 275 276 277 277 279 280 281 283 284 284 285 286 287 288 290 292 294 296 297
209 212 215 217 219 220 221 221 221 221 221 221 220 219 220 220 221 222 220 217 217 216 216 218 218 219 221 225 226 227 228 229 229 230 231 231 232 233 233 234 235 234 231 230 232 232 232 235 237 239 240 240 241 249 260 261 259 258 258 260 261 263 265 266 269 271 273 274 274 275 277 278 280 281 282 283 284 285 285 286 288 290 293 295 296 297
210 212 214 216 218 220 221 222 222 221 221 220 219 219 218 216 216 216 216 215 215 215 216 218 219 220 223 226 227 228 229 230 231 231 231 231 232 233 233 234 235 234 232 230 232 233 233 235 238 240 243 244 244 249 255 255 256 258 259 260 261 264 266 268 269 271 272 273 273 275 277 278 279 281 282 283 283 284 286 287 289 291 292 294 295 296
210 213 215 216 218 219 219 219 220 220 221 222 221 221 221 219 217 216 214 213 213 212 213 215 218 220 223 226 227 227 228 230 231 232 232 232 232 232 233 233 234 234 232 230 232 233 235 237 240 242 244 247 249 252 257 258 260 261 261 261 262 264 266 267 269 270 271 273 274 275 277 278 279 280 281 283 284 285 286 287 289 290 291 293 294 295
210 212 215 217 219 220 222 223 223 223 223 223 223 223 222 221 221 220 217 215 214 213 213 214 216 219 222 226 226 226 227 229 230 232 232 232 232 232 233 233 234 234 233 232 232 233 235 239 241 242 244 248 250 253 256 258 260 260 261 263 265 266 267 267 269 270 271 272 273 275 277 279 280 281 282 283 284 285 286 287 288 289 291 292 293 293
209 211 213 216 219 221 224 227 228 228 228 227 225 224 223 221 220 220 218 216 215 215 215 216 217 219 222 226 226 225 226 227 229 231 231 232 232 232 233 233 234 235 234 234 234 234 235 237 240 242 244 247 250 253 254 256 259 263 265 267 268 268 267 267 268 270 271 273 274 276 278 280 281 282 283 283 283 284 285 287 288 289 291 292 292 292
207 209 211 213 216 218 220 220 221 223 225 225 225 224 223 221 220 219 217 216 215 215 216 217 218 219 222 226 227 225 225 227 228 230 231 231 232 232 232 233 234 234 234 233 234 234 234 236 240 243 245 247 249 252 254 256 260 264 266 267 267 266 266 266 268 270 272 274 275 277 278 280 281 282 282 282 283 284 286 287 289 290 291 291 291 291
208 209 211 213 215 217 218 218 217 217 217 218 219 220 220 219 219 218 216 215 214 214 215 217 218 219 221 224 226 225 225 226 228 229 231 232 232 232 233 233 233 232 232 232 232 233 232 234 238 242 245 247 250 252 254 257 261 264 266 266 266 267 269 270 271 272 273 274 275 277 279 280 281 281 282 282 283 285 286 288 289 290 291 291 291 292
210 211 213 214 216 219 219 219 218 218 217 216 216 217 218 217 216 216 216 215 214 214 215 216 218 220 221 223 225 224 224 226 227 229 231 232 233 233 233 233 232 231 230 231 232 233 232 231 234 239 243 246 249 251 253 256 259 262 265 266 267 270 271 273 274 275 276 276 277 278 279 280 280 281 281 282 283 285 286 287 288 290 291 291 292 292
211 212 214 215 217 219 220 221 221 221 220 219 218 218 217 217 215 214 214 213 212 214 215 215 217 219 221 222 224 224 223 224 226 228 230 231 231 231 231 231 231 230 231 232 232 233 233 231 231 236 241 244 246 247 248 253 258 263 266 267 268 270 271 271 273 274 274 276 277 278 279 280 280 281 281 282 283 284 285 286 287 289 290 291 292 293
210 212 214 216 218 219 220 221 222 222 221 221 221 220 220 219 217 216 215 213 213 213 214 214 216 219 221 222 224 224 223 223 223 225 226 227 228 229 229 229 229 229 230 231 232 232 232 231 231 234 240 245 248 247 246 248 253 258 263 265 266 266 266 266 267 268 269 271 274 277 278 280 281 281 282 282 283 283 284 286 288 289 290 292 293 293
209 211 214 216 218 218 219 220 221 221 222 222 222 221 221 221 220 219 218 216 215 214 213 214 216 218 220 222 223 224 223 222 222 222 223 225 226 226 226 227 227 228 228 229 230 230 231 231 230 232 235 237 239 243 244 244 245 248 251 255 257 258 260 263 265 267 269 271 274 276 277 279 280 281 282 282 282 283 285 286 288 290 291 292 293 294
208 210 213 215 216 217 218 220 220 220 221 221 222 222 222 222 221 220 219 218 217 216 215 214 214 216 219 221 223 224 223 222 221 220 220 222 223 224 225 226 226 227 227 228 229 230 229 226 224 227 231 233 235 240 243 244 245 246 247 250 253 256 260 265 268 270 272 274 275 276 277 278 280 281 282 282 282 284 285 287 289 291 291 292 293 293
207 209 211 213 214 216 217 219 219 220 220 220 220 221 221 221 221 220 219 219 219 218 217 216 215 215 217 220 221 223 223 223 222 221 220 221 222 223 224 226 227 227 227 227 228 230 229 225 222 224 229 233 237 239 241 242 245 247 250 253 257 261 265 267 269 271 273 274 275 277 278 279 280 281 282 283 284 285 286 288 290 290 291 292 292 293
208 209 210 212 213 215 217 217 218 219 219 219 220 221 221 220 220 220 219 219 220 219 218 218 217 216 216 219 221 222 224 225 224 223 222 222 222 222 224 225 226 228 228 228 228 229 229 228 226 227 230 233 235 237 239 242 246 250 253 257 261 264 267 269 270 271 272 274 275 277 278 280 281 282 283 283 284 285 287 288 289 290 291 291 292 292
210 210 210 210 212 214 215 217 218 218 218 218 220 220 221 221 221 220 220 220 220 220 219 219 218 217 217 218 220 222 223 224 225 225 224 223 222 223 223 224 226 227 227 228 229 230 230 229 229 231 232 234 237 239 241 244 247 251 254 258 261 264 266 267 268 270 271 273 274 275 277 279 280 281 282 282 283 285 286 288 289 290 291 291 291 292
212 212 212 212 213 214 215 216 217 217 217 218 219 219 220 221 221 221 221 221 222 222 221 220 219 218 218 218 220 221 222 222 224 225 225 224 223 223 223 224 225 227 227 228 229 230 230 230 232 233 235 238 240 242 244 247 250 252 255 257 260 262 264 265 267 268 270 272 274 275 277 278 279 280 281 282 283 285 287 289 290 290 291 291 291 291
213 213 213 214 215 215 216 217 217 217 219 220 220 221 222 222 222 222 221 222 222 223 223 222 220 219 218 218 219 221 222 222 223 225 226 225 224 224 224 225 225 226 227 227 228 229 230 231 233 236 238 240 242 244 246 248 251 252 255 257 259 261 264 265 267 269 271 272 274 276 277 279 280 280 280 282 285 287 289 289 290 290 290 290 290 290
214 215 215 216 217 219 220 221 221 221 221 222 223 223 224 225 225 224 224 223 223 223 223 223 222 220 219 218 218 220 221 222 222 223 224 225 225 225 226 226 227 228 228 228 229 231 232 233 235 238 240 242 244 245 247 249 251 253 255 257 260 262 265 266 268 270 271 273 275 277 278 279 280 280 282 286 288 289 289 289 290 289 289 289 289 290
215 216 217 218 220 222 223 224 224 224 224 225 226 226 226 227 228 228 228 228 226 226 225 224 222 221 220 219 218 218 220 222 223 223 223 224 226 227 228 229 230 230 231 231 232 233 235 236 237 240 242 243 245 247 249 251 253 255 257 259 262 264 266 267 269 270 272 274 275 276 278 279 280 282 285 288 289 289 289 290 289 289 288 288 289 289
216 217 217 218 220 222 223 224 225 226 226 227 228 229 230 230 231 231 231 231 230 228 228 226 224 222 221 220 219 218 219 221 223 224 224 224 225 227 228 230 231 232 233 234 235 236 237 239 240 242 244 246 247 249 251 253 254 256 258 260 263 265 266 267 269 271 272 273 274 276 278 279 281 283 286 287 287 288 289 289 288 287 287 288 288 289
218 218 219 220 221 222 223 224 226 226 227 228 229 230 230 231 231 231 231 231 231 230 230 228 226 223 221 221 220 219 219 221 223 224 225 226 226 227 229 230 232 233 234 235 237 238 239 241 243 245 247 249 250 251 253 255 257 258 259 261 262 264 265 267 269 271 272 273 274 276 277 279 281 283 284 285 286 287 287 287 286 286 287 288 289 290
219 219 220 221 222 223 224 225 227 228 229 230 231 231 231 230 231 232 232 231 232 232 231 230 228 226 223 222 221 221 220 221 222 224 225 227 228 230 231 232 234 236 237 238 239 241 242 244 246 248 249 251 252 253 255 257 258 260 260 261 262 264 266 268 269 270 272 273 274 275 276 277 279 282 283 284 285 285 285 285 286 287 288 289 290 290
219 220 221 222 223 224 225 227 228 229 230 230 231 232 232 230 230 231 232 232 232 232 231 230 229 228 225 223 222 222 221 221 222 224 225 227 229 231 233 234 236 238 239 241 242 243 244 246 247 249 251 252 253 254 256 257 258 259 260 261 262 264 266 267 268 270 272 273 274 275 277 279 282 283 284 285 285 285 286 286 287 288 289 290 291 292
220 222 223 224 225 227 228 229 231 232 233 232 233 234 234 233 232 231 232 232 232 232 232 230 229 228 227 225 223 222 222 222 223 224 225 227 229 231 233 235 236 238 240 241 243 244 245 247 248 250 251 252 253 254 255 256 257 258 259 261 262 263 264 266 267 269 271 272 274 277 279 281 283 284 284 285 285 285 286 287 289 290 290 291 292 294
222 224 225 227 228 229 230 232 233 235 236 236 236 237 237 236 234 233 232 232 231 231 231 230 229 227 226 224 223 222 222 222 223 224 225 227 228 230 232 235 237 238 239 241 242 243 245 246 248 249 251 252 253 254 255 256 256 258 259 260 261 262 264 266 268 270 272 273 275 278 280 280 281 282 283 283 283 284 285 287 289 289 290 291 293 294
225 225 227 229 231 231 232 234 235 236 236 236 236 237 237 236 234 232 231 231 230 229 229 229 227 226 224 222 221 221 220 221 222 223 225 226 228 229 232 234 237 239 240 241 242 244 245 246 247 249 251 252 253 254 255 256 257 258 258 259 261 263 265 267 270 271 273 275 277 278 279 280 281 282 282 282 283 284 285 286 288 289 290 291 293 294
227 227 227 229 231 232 233 234 235 236 236 235 234 235 235 235 233 231 229 228 227 227 227 226 225 223 222 220 220 219 219 220 222 223 224 226 228 230 232 234 237 239 240 242 243 244 245 247 248 250 251 252 253 254 255 256 257 258 259 260 262 265 267 268 269 270 272 274 277 278 279 280 281 282 282 283 283 284 285 287 288 289 290 291 293 295
227 226 227 228 228 229 231 232 233 233 232 232 231 231 232 232 231 230 228 226 225 225 225 224 222 221 220 219 218 218 219 220 222 223 224 226 228 230 232 234 237 239 240 242 243 244 245 247 248 249 249 250 252 253 254 256 257 258 260 262 265 266 267 268 268 270 271 273 275 277 278 279 280 282 283 284 285 286 287 288 289 289 290 291 293 294
223 222 223 224 224 224 224 225 226 226 226 225 224 225 226 227 227 227 226 225 224 223 222 222 221 219 218 218 218 218 219 220 221 223 225 227 229 231 233 235 237 239 240 241 242 243 244 245 247 248 249 250 252 253 255 257 258 260 261 263 265 266 267 269 270 271 273 274 276 279 281 282 283 284 284 285 286 287 287 287 287 287 289 290 292 293
215 215 216 217 218 219 219 219 219 219 219 219 219 218 219 221 222 222 222 222 221 220 219 219 219 218 217 218 218 218 218 220 221 223 225 227 229 231 233 236 238 240 241 242 242 243 244 245 246 248 249 251 252 254 256 257 259 261 262 263 265 266 268 270 272 273 275 276 278 280 281 281 282 282 282 283 283 283 283 283 284 286 288 289 291 292
Height
10590 10595 10603 10611 10615 10619 10623 10625 10628 10630 10631 10633 10637 10640 10644 10650 10656 10662 10666 10669 10672 10675 10677 10680 10684 10689 10690 10692 10696 10700 10705 10710 10712 10716 10720 10724 10729 10731 10734 10739 10744 10748 10752 10754 10757 10760 10761 10761 10759 10758 10759 10759 10761 10764 10766 10768 10767 10768 10769 10768 10767 10766 10765 10765 10765 10765 10765 10765 10765 10765 10765 10765 10765 10765 10765 10764 10763 10762 10761 10761 10760 10760 10759 10759 10758 10757
10584 10592 10599 10603 10607 10611 10614 10616 10619 10622 10624 10627 10632 10636 10640 10646 10653 10658 10661 10664 10668 10670 10674 10677 10680 10683 10686 10689 10692 10696 10701 10705 10708 10711 10716 10723 10727 10729 10734 10741 10744 10748 10752 10756 10758 10760 10760 10756 10753 10754 10755 10754 10758 10763 10767 10766 10763 10764 10766 10765 10765 10764 10761 10761 10761 10761 10761 10761 10761 10760 10761 10761 10761 10761 10760 10760 10759 10758 10757 10756 10755 10755 10755 10754 10753 10752
10581 10589 10592 10596 10601 10603 10605 10609 10613 10617 10620 10623 10628 10632 10635 10642 10650 10653 10655 10659 10663 10666 10670 10673 10676 10679 10682 10685 10688 10692 10697 10701 10705 10708 10713 10719 10723 10726 10730 10734 10737 10741 10747 10751 10754 10754 10753 10748 10746 10753 10756 10752 10755 10764 10767 10764 10760 10762 10765 10766 10767 10764 10758 10756 10757 10757 10757 10756 10756 10756 10756 10757 10757 10757 10756 10755 10754 10753 10752 10751 10750 10750 10750 10749 10749 10748
10577 10582 10586 10591 10594 10595 10600 10605 10609 10613 10617 10620 10625 10628 10631 10638 10644 10647 10651 10655 10658 10662 10666 10669 10672 10675 10678 10682 10685 10689 10693 10696 10700 10704 10708 10712 10717 10721 10724 10729 10733 10736 10737 10739 10740 10740 10741 10742 10745 10753 10755 10751 10755 10763 10764 10760 10757 10760 10763 10765 10769 10765 10756 10753 10753 10753 10752 10752 10752 10752 10752 10753 10753 10753 10752 10751 10750 10749 10748 10746 10746 10745 10745 10744 10743 10743
10569 10574 10579 10582 10584 10589 10595 10599 10604 10609 10613 10617 10620 10622 10627 10633 10638 10644 10648 10650 10653 10658 10661 10664 10668 10671 10674 10678 10682 10685 10688 10691 10695 10700 10704 10707 10711 10715 10720 10724 10729 10731 10732 10733 10733 10733 10736 10739 10744 10748 10749 10750 10756 10760 10760 10757 10755 10756 10759 10762 10764 10761 10754 10751 10751 10749 10748 10748 10748 10748 10749 10749 10749 10748 10747 10746 10745 10744 10743 10742 10741 10740 10740 10739 10739 10738
10562 10568 10571 10571 10576 10583 10589 10594 10599 10603 10607 10611 10614 10617 10622 10627 10633 10641 10643 10644 10648 10652 10656 10660 10664 10668 10671 10675 10678 10681 10684 10687 10690 10696 10701 10704 10706 10710 10715 10719 10723 10726 10726 10728 10729 10731 10733 10733 10736 10740 10744 10748 10753 10758 10758 10757 10754 10752 10754 10758 10758 10756 10752 10749 10747 10746 10744 10744 10744 10744 10745 10745 10744 10743 10743 10741 10740 10739 10738 10737 10737 10736 10735 10735 10734 10734
10557 10562 10562 10565 10572 10577 10582 10589 10593 10597 10602 10605 10608 10611 10616 10622 10629 10635 10637 10639 10643 10648 10654 10658 10660 10663 10667 10671 10674 10677 10680 10683 10686 10692 10697 10701 10702 10706 10710 10713 10717 10720 10721 10722 10724 10728 10730 10728 10730 10735 10737 10740 10746 10754 10755 10753 10752 10751 10752 10755 10754 10752 10749 10745 10743 10742 10741 10741 10741 10741 10741 10741 10740 10739 10738 10737 10736 10735 10733 10732 10732 10731 10731 10730 10730 10729
10554 10554 10556 10562 10568 10572 10578 10584 10588 10592 10596 10600 10603 10606 10611 10617 10623 10628 10631 10634 10640 10646 10651 10653 10655 10660 10664 10668 10671 10673 10676 10679 10683 10688 10692 10696 10698 10701 10704 10707 10712 10715 10714 10716 10721 10726 10728 10726 10727 10729 10730 10732 10737 10744 10747 10747 10749 10749 10748 10750 10751 10749 10745 10741 10739 10738 10737 10737 10737 10737 10737 10736 10735 10734 10733 10732 10731 10730 10729 10728 10727 10726 10726 10725 10724 10724
10547 10547 10552 10558 10562 10569 10574 10578 10583 10586 10590 10596 10598 10600 10606 10612 10618 10623 10626 10631 10638 10642 10645 10647 10652 10658 10661 10664 10666 10669 10672 10676 10680 10683 10687 10689 10692 10696 10698 10701 10706 10708 10708 10711 10717 10722 10722 10720 10721 10723 10725 10728 10730 10734 10737 10739 10742 10742 10742 10742 10743 10743 10740 10736 10735 10734 10734 10734 10733 10733 10732 10731 10730 10729 10728 10727 10726 10725 10724 10723 10722 10721 10720 10720 10719 10719
10539 10541 10547 10551 10556 10563 10567 10572 10576 10578 10585 10590 10590 10594 10601 10607 10614 10619 10623 10629 10635 10638 10641 10645 10650 10654 10657 10659 10662 10666 10670 10673 10675 10677 10680 10683 10686 10690 10693 10695 10699 10701 10703 10707 10711 10714 10714 10713 10714 10716 10720 10724 10726 10728 10730 10732 10733 10734 10735 10734 10733 10734 10733 10732 10731 10731 10730 10730 10729 10728 10727 10726 10725 10724 10723 10722 10721 10720 10719 10718 10717 10716 10716 10715 10714 10713
10531 10534 10539 10545 10551 10556 10560 10563 10566 10572 10580 10582 10583 10590 10597 10604 10610 10615 10620 10626 10631 10635 10639 10643 10646 10650 10653 10656 10659 10663 10665 10667 10668 10671 10675 10678 10681 10684 10686 10688 10692 10695 10698 10701 10705 10707 10707 10707 10708 10710 10714 10718 10722 10724 10725 10726 10727 10728 10728 10728 10727 10727 10727 10727 10727 10726 10726 10725 10724 10723 10722 10721 10720 10719 10717 10716 10715 10715 10714 10713 10712 10712 10711 10710 10709 10708
10525 10528 10536 10542 10548 10552 10555 10558 10562 10569 10575 10576 10581 10588 10595 10601 10607 10612 10617 10623 10628 10633 10636 10640 10643 10646 10650 10653 10655 10658 10659 10661 10663 10667 10671 10673 10674 10677 10679 10682 10687 10692 10694 10696 10699 10700 10700 10702 10703 10705 10708 10712 10716 10718 10720 10721 10721 10722 10722 10722 10722 10722 10722 10723 10723 10722 10721 10720 10719 10718 10717 10716 10715 10713 10712 10711 10710 10709 10708 10708 10707 10707 10706 10705 10704 10703
10519 10526 10534 10539 10543 10546 10550 10555 10561 10568 10571 10573 10579 10587 10593 10599 10604 10610 10616 10622 10627 10629 10634 10638 10640 10643 10647 10650 10651 10653 10654 10656 10660 10664 10666 10667 10668 10672 10675 10679 10684 10689 10691 10692 10693 10695 10696 10697 10698 10700 10702 10705 10709 10712 10714 10716 10716 10716 10716 10716 10716 10717 10717 10718 10717 10716 10715 10715 10714 10713 10711 10710 10709 10708 10707 10706 10705 10704 10703 10703 10703 10702 10701 10700 10699 10698
10515 10524 10530 10534 10539 10542 10548 10554 10560 10566 10569 10573 10579 10585 10590 10595 10602 10610 10616 10620 10622 10626 10633 10635 10637 10641 10643 10645 10647 10647 10648 10652 10656 10658 10660 10662 10665 10668 10671 10675 10680 10685 10686 10688 10688 10690 10692 10693 10694 10695 10697 10699 10702 10706 10708 10710 10710 10711 10711 10711 10711 10711 10712 10712 10711 10711 10710 10710 10709 10707 10706 10705 10704 10703 10701 10700 10700 10699 10698 10698 10698 10697 10696 10696 10694 10693
10515 10523 10528 10532 10537 10541 10546 10552 10556 10560 10563 10567 10573 10578 10584 10591 10599 10605 10609 10614 10617 10623 10629 10630 10633 10637 10638 10642 10642 10640 10643 10648 10650 10653 10655 10658 10662 10665 10667 10670 10675 10679 10681 10682 10684 10686 10688 10689 10691 10692 10693 10695 10697 10700 10702 10704 10705 10705 10705 10705 10705 10705 10706 10706 10706 10705 10705 10705 10704 10702 10701 10700 10699 10698 10697 10696 10695 10695 10694 10694 10693 10692 10692 10691 10690 10688
10511 10519 10523 10528 10534 10538 10542 10547 10551 10554 10557 10561 10566 10571 10578 10585 10591 10597 10602 10608 10611 10617 10622 10623 10629 10633 10634 10636 10635 10633 10638 10642 10645 10648 10650 10654 10659 10661 10662 10665 10669 10673 10675 10677 10679 10682 10684 10686 10686 10687 10687 10689 10691 10694 10696 10697 10699 10700 10700 10700 10700 10700 10701 10701 10701 10701 10701 10700 10699 10697 10696 10695 10695 10693 10693 10692 10691 10691 10690 10689 10689 10688 10687 10686 10685 10683
10505 10512 10517 10523 10527 10531 10536 10541 10545 10548 10552 10558 10563 10569 10575 10580 10587 10592 10598 10603 10607 10612 10616 10619 10624 10627 10628 10629 10628 10629 10634 10636 10640 10643 10645 10650 10654 10657 10658 10661 10664 10667 10669 10672 10675 10677 10678 10678 10677 10678 10681 10683 10686 10688 10689 10690 10692 10694 10695 10695 10695 10696 10696 10696 10696 10696 10696 10695 10694 10693 10692 10691 10691 10690 10689 10688 10687 10687 10686 10685 10684 10683 10682 10681 10680 10679
10502 10509 10513 10516 10520 10524 10530 10535 10537 10541 10548 10554 10559 10565 10570 10576 10582 10586 10591 10597 10602 10608 10613 10616 10619 10622 10624 10625 10624 10626 10629 10632 10635 10637 10641 10645 10649 10653 10654 10654 10656 10660 10664 10667 10668 10669 10670 10668 10666 10669 10674 10678 10680 10682 10683 10685 10687 10688 10689 10690 10691 10692 10692 10692 10692 10692 10691 10691 10690 10689 10688 10687 10687 10686 10685 10684 10683 10683 10682 10681 10680 10679 10678 10677 10676 10675
10499 10504 10506 10510 10515 10519 10524 10528 10532 10539 10546 10550 10554 10559 10565 10570 10575 10579 10586 10594 10599 10604 10609 10612 10615 10619 10621 10621 10619 10620 10623 10626 10629 10633 10637 10640 10644 10647 10647 10647 10651 10656 10660 10662 10662 10664 10665 10665 10666 10668 10671 10673 10675 10678 10679 10681 10682 10682 10684 10685 10686 10687 10687 10687 10687 10687 10687 10686 10685 10684 10684 10683 10682 10682 10681 10680 10679 10678 10678 10677 10676 10675 10674 10673 10672 10671
10493 10497 10500 10505 10509 10514 10519 10525 10531 10538 10543 10545 10551 10557 10560 10565 10570 10575 10583 10589 10593 10599 10604 10606 10610 10615 10616 10614 10612 10614 10617 10621 10625 10629 10632 10636 10639 10641 10641 10643 10647 10651 10655 10657 10658 10660 10661 10663 10666 10668 10669 10671 10673 10675 10676 10677 10677 10677 10679 10681 10682 10682 10682 10682 10682 10682 10682 10681 10681 10680 10679 10679 10678 10677 10677 10676 10675 10674 10673 10672 10672 10671 10669 10668 10668 10666
10489 10493 10497 10502 10506 10512 10519 10525 10530 10535 10539 10543 10549 10553 10557 10563 10569 10573 10579 10584 10588 10594 10599 10601 10605 10609 10609 10605 10605 10609 10613 10618 10623 10626 10629 10632 10634 10635 10637 10641 10643 10647 10651 10653 10654 10656 10657 10659 10662 10665 10667 10668 10671 10672 10672 10673 10672 10672 10674 10675 10676 10677 10677 10677 10677 10678 10678 10677 10676 10676 10675 10675 10674 10673 10673 10672 10671 10670 10669 10668 10667 10666 10665 10664 10663 10662
10485 10489 10494 10500 10506 10511 10517 10522 10526 10531 10534 10539 10543 10547 10552 10558 10563 10568 10574 10580 10584 10590 10594 10597 10601 10603 10602 10600 10602 10607 10611 10615 10619 10622 10625 10627 10629 10632 10635 10638 10639 10643 10647 10650 10650 10652 10654 10656 10659 10662 10664 10665 10667 10669 10670 10670 10668 10667 10669 10670 10671 10672 10672 10672 10673 10673 10673 10672 10672 10672 10671 10671 10670 10669 10668 10667 10667 10666 10665 10664 10663 10662 10661 10659 10658 10657
10482 10487 10492 10497 10502 10507 10514 10518 10522 10526 10529 10534 10538 10542 10546 10551 10556 10561 10567 10572 10577 10584 10589 10593 10596 10597 10596 10596 10599 10604 10608 10613 10616 10618 10620 10622 10625 10628 10631 10633 10635 10638 10643 10645 10647 10648 10651 10653 10656 10660 10662 10662 10664 10666 10667 10666 10664 10664 10665 10665 10666 10667 10667 10668 10668 10668 10668 10668 10668 10667 10667 10667 10666 10665 10664 10663 10662 10661 10660 10659 10658 10657 10656 10655 10654 10653
10480 10484 10489 10494 10498 10503 10508 10511 10516 10521 10525 10531 10536 10540 10544 10549 10552 10555 10560 10564 10570 10576 10580 10583 10587 10590 10590 10591 10594 10600 10605 10609 10612 10614 10615 10618 10621 10624 10626 10628 10631 10634 10638 10641 10643 10645 10648 10650 10653 10655 10657 10658 10660 10661 10661 10661 10661 10661 10661 10662 10662 10663 10664 10664 10664 10664 10663 10663 10663 10663 10662 10662 10662 10661 10660 10659 10658 10656 10655 10654 10653 10653 10652 10651 10650 10648
10476 10481 10486 10491 10495 10501 10505 10509 10515 10521 10526 10530 10533 10536 10541 10546 10549 10554 10559 10563 10567 10571 10574 10577 10580 10583 10584 10585 10590 10596 10602 10605 10607 10609 10611 10614 10617 10620 10622 10624 10626 10629 10634 10637 10639 10642 10645 10647 10648 10650 10652 10654 10655 10656 10657 10657 10657 10657 10657 10658 10659 10660 10660 10660 10660 10659 10659 10659 10658 10658 10658 10658 10657 10656 10655 10654 10653 10651 10650 10650 10649 10648 10647 10646 10645 10644
10472 10478 10484 10489 10495 10500 10505 10511 10517 10521 10525 10528 10530 10534 10539 10543 10546 10551 10556 10560 10565 10569 10572 10574 10576 10579 10581 10582 10586 10593 10597 10600 10602 10604 10606 10609 10612 10615 10618 10621 10623 10626 10631 10633 10635 10638 10640 10642 10644 10646 10648 10649 10650 10652 10653 10654 10653 10652 10653 10654 10655 10656 10656 10656 10655 10655 10655 10654 10654 10654 10654 10654 10653 10652 10651 10650 10648 10647 10646 10645 10644 10644 10643 10642 10640 10639
10468 10474 10480 10485 10491 10495 10500 10506 10511 10515 10520 10524 10527 10530 10534 10538 10542 10546 10551 10556 10561 10564 10567 10570 10572 10575 10577 10578 10582 10589 10593 10595 10598 10599 10601 10604 10607 10611 10614 10617 10620 10624 10628 10629 10631 10633 10635 10638 10640 10642 10644 10645 10646 10649 10650 10650 10649 10648 10649 10651 10652 10652 10652 10651 10651 10651 10650 10650 10650 10650 10650 10649 10649 10648 10647 10645 10644 10643 10642 10641 10640 10639 10638 10637 10635 10634
10466 10472 10477 10482 10486 10490 10496 10501 10505 10508 10512 10516 10520 10523 10528 10533 10538 10543 10548 10551 10555 10559 10562 10565 10567 10570 10572 10574 10577 10583 10588 10591 10593 10595 10597 10600 10604 10607 10611 10614 10617 10621 10623 10624 10625 10627 10631 10635 10636 10637 10639 10641 10643 10645 10646 10646 10646 10646 10645 10646 10647 10648 10648 10647 10646 10646 10646 10645 10646 10646 10646 10645 10645 10644 10643 10642 10640 10639 10638 10636 10635 10634 10633 10632 10630 10629
10466 10471 10475 10480 10484 10488 10494 10497 10500 10504 10507 10510 10514 10518 10523 10528 10533 10538 10542 10546 10551 10554 10556 10559 10562 10565 10568 10570 10573 10578 10583 10587 10589 10592 10594 10597 10601 10604 10607 10610 10614 10616 10617 10618 10621 10624 10628 10632 10633 10634 10636 10638 10640 10642 10642 10643 10644 10643 10641 10641 10642 10643 10643 10642 10642 10641 10641 10641 10641 10642 10641 10641 10641 10640 10639 10637 10636 10634 10633 10632 10631 10630 10628 10627 10625 10624
10464 10469 10473 10477 10482 10486 10490 10494 10498 10501 10505 10508 10511 10515 10519 10524 10528 10532 10536 10540 10545 10547 10550 10555 10558 10560 10562 10565 10569 10574 10579 10582 10585 10588 10591 10594 10597 10600 10603 10606 10609 10611 10612 10614 10618 10622 10625 10628 10631 10633 10635 10636 10636 10637 10640 10642 10642 10639 10637 10636 10637 10638 10638 10638 10637 10637 10637 10637 10637 10637 10636 10636 10636 10636 10635 10633 10631 10630 10628 10627 10626 10624 10623 10621 10620 10618
10461 10466 10470 10475 10479 10483 10487 10491 10495 10498 10502 10505 10508 10512 10516 10521 10525 10528 10532 10536 10539 10542 10546 10550 10552 10555 10559 10562 10566 10570 10574 10578 10580 10583 10586 10589 10592 10595 10598 10601 10604 10606 10609 10612 10615 10618 10621 10624 10629 10633 10634 10634 10632 10633 10639 10641 10638 10635 10633 10631 10631 10633 10633 10633 10633 10633 10632 10632 10632 10632 10632 10632 10632 10631 10630 10628 10626 10624 10623 10622 10621 10619 10617 10616 10614 10613
10458 10463 10467 10471 10476 10481 10484 10487 10491 10495 10497 10500 10504 10509 10513 10518 10522 10525 10529 10532 10535 10538 10541 10544 10548 10552 10555 10558 10562 10565 10569 10573 10576 10578 10581 10584 10586 10590 10593 10596 10599 10602 10605 10608 10610 10613 10616 10621 10627 10631 10631 10628 10626 10628 10633 10634 10631 10631 10629 10626 10626 10628 10628 10628 10628 10628 10627 10627 10627 10627 10627 10627 10627 10626 10624 10622 10620 10619 10617 10616 10615 10614 10612 10610 10609 10607
10455 10460 10464 10468 10473 10477 10480 10483 10487 10490 10493 10497 10502 10506 10510 10513 10517 10521 10524 10527 10530 10533 10536 10540 10544 10547 10550 10553 10557 10560 10563 10567 10570 10573 10576 10578 10581 10585 10588 10592 10595 10598 10600 10603 10605 10606 10609 10616 10621 10623 10620 10619 10620 10624 10626 10625 10625 10625 10623 10622 10623 10624 10623 10624 10623 10622 10622 10622 10622 10622 10621 10621 10621 10620 10619 10617 10615 10613 10612 10611 10610 10608 10606 10604 10602 10600
10450 10455 10459 10464 10468 10472 10475 10479 10482 10485 10489 10494 10499 10501 10504 10508 10512 10516 10519 10522 10524 10528 10532 10535 10538 10542 10545 10548 10551 10554 10557 10560 10564 10568 10572 10575 10579 10582 10585 10588 10590 10592 10595 10599 10599 10599 10603 10609 10613 10613 10613 10613 10615 10616 10617 10618 10619 10619 10618 10618 10619 10619 10619 10619 10618 10618 10617 10617 10616 10616 10616 10615 10615 10614 10612 10610 10609 10607 10606 10605 10604 10602 10600 10598 10596 10593
10445 10450 10454 10459 10464 10467 10470 10473 10476 10480 10486 10491 10493 10495 10499 10503 10506 10510 10513 10516 10519 10523 10526 10529 10533 10536 10540 10543 10545 10549 10553 10557 10561 10566 10570 10573 10576 10579 10581 10584 10585 10587 10590 10593 10594 10594 10599 10604 10606 10607 10607 10607 10607 10608 10610 10613 10614 10614 10614 10614 10614 10614 10614 10614 10613 10613 10612 10612 10612 10611 10610 10609 10608 10607 10606 10604 10602 10602 10600 10599 10598 10596 10593 10591 10589 10586
10442 10446 10450 10455 10458 10461 10465 10469 10472 10477 10482 10484 10486 10489 10494 10497 10500 10505 10508 10511 10515 10518 10521 10524 10528 10532 10535 10538 10542 10545 10549 10553 10557 10561 10565 10569 10572 10575 10577 10578 10580 10582 10584 10587 10589 10591 10595 10598 10599 10599 10599 10600 10601 10603 10605 10607 10608 10609 10609 10610 10610 10610 10609 10609 10608 10608 10607 10607 10606 10605 10604 10603 10602 10601 10599 10597 10597 10596 10595 10593 10592 10589 10587 10584 10581 10579
10438 10442 10447 10451 10454 10458 10461 10463 10467 10472 10474 10476 10480 10484 10487 10491 10495 10499 10503 10506 10509 10512 10515 10519 10523 10527 10531 10534 10537 10540 10543 10547 10552 10556 10560 10563 10565 10568 10570 10572 10574 10576 10578 10582 10584 10586 10589 10591 10591 10591 10593 10595 10597 10598 10600 10602 10603 10604 10604 10605 10605 10605 10604 10604 10603 10602 10601 10601 10600 10599 10598 10597 10596 10594 10592 10591 10591 10590 10589 10587 10585 10582 10579 10576 10574 10571
10435 10439 10443 10447 10450 10453 10455 10457 10462 10466 10469 10472 10476 10479 10482 10486 10490 10494 10497 10500 10504 10507 10510 10514 10517 10521 10525 10528 10532 10535 10538 10544 10548 10550 10552 10554 10557 10560 10563 10565 10567 10569 10572 10576 10578 10580 10582 10584 10586 10588 10590 10591 10591 10593 10595 10597 10598 10599 10600 10601 10600 10599 10599 10598 10597 10596 10595 10594 10594 10593 10592 10591 10590 10587 10586 10586 10586 10585 10583 10580 10578 10575 10572 10569 10567 10564
10432 10436 10439 10443 10446 10449 10451 10455 10459 10462 10465 10469 10471 10475 10479 10482 10485 10489 10492 10496 10499 10502 10505 10508 10511 10515 10518 10522 10525 10529 10534 10538 10539 10540 10542 10546 10550 10554 10556 10559 10561 10563 10567 10570 10573 10576 10578 10580 10582 10584 10585 10585 10585 10588 10591 10592 10593 10594 10595 10595 10595 10594 10592 10591 10590 10589 10588 10588 10587 10586 10585 10585 10582 10580 10580 10580 10580 10578 10576 10573 10571 10568 10565 10562 10560 10558
10429 10432 10437 10441 10443 10446 10449 10452 10454 10458 10462 10464 10467 10471 10475 10477 10481 10485 10489 10492 10495 10497 10498 10501 10504 10508 10512 10516 10519 10524 10527 10528 10529 10531 10535 10540 10544 10548 10551 10554 10556 10558 10562 10565 10568 10571 10574 10576 10578 10578 10578 10579 10581 10583 10586 10587 10588 10589 10590 10590 10589 10588 10586 10584 10583 10583 10582 10582 10581 10580 10579 10578 10575 10574 10575 10574 10573 10570 10568 10566 10563 10560 10558 10556 10553 10551
10425 10429 10433 10436 10438 10441 10444 10446 10449 10453 10457 10459 10463 10466 10469 10472 10477 10481 10483 10486 10488 10489 10491 10495 10498 10502 10506 10510 10512 10516 10518 10520 10522 10526 10531 10536 10539 10542 10545 10548 10550 10553 10557 10561 10564 10566 10569 10570 10571 10571 10572 10573 10576 10579 10580 10581 10582 10584 10584 10583 10582 10581 10578 10577 10577 10577 10576 10575 10574 10574 10573 10571 10570 10570 10569 10567 10565 10563 10561 10559 10556 10554 10551 10549 10547 10545
10421 10425 10428 10430 10433 10436 10439 10441 10444 10447 10450 10454 10457 10460 10463 10467 10471 10473 10475 10477 10478 10480 10484 10488 10492 10496 10500 10502 10505 10509 10512 10515 10518 10522 10526 10530 10533 10536 10540 10542 10545 10548 10552 10555 10558 10560 10562 10564 10565 10565 10566 10569 10571 10573 10574 10575 10577 10577 10577 10576 10575 10573 10572 10571 10571 10570 10569 10568 10568 10568 10567 10566 10565 10564 10562 10561 10559 10557 10555 10552 10550 10547 10545 10543 10541 10539
10417 10420 10423 10425 10428 10431 10434 10436 10439 10442 10445 10447 10449 10452 10456 10461 10463 10464 10465 10467 10470 10473 10478 10483 10487 10491 10494 10496 10500 10503 10506 10509 10513 10517 10521 10525 10528 10532 10535 10538 10540 10543 10546 10549 10553 10555 10557 10558 10558 10559 10561 10563 10566 10567 10568 10569 10570 10569 10569 10568 10567 10566 10566 10566 10565 10563 10562 10562 10562 10562 10561 10560 10559 10557 10556 10554 10552 10550 10548 10545 10543 10540 10538 10536 10535 10532
10412 10415 10417 10420 10423 10425 10428 10431 10433 10434 10436 10438 10441 10444 10448 10452 10454 10455 10457 10461 10464 10468 10472 10477 10481 10485 10489 10492 10494 10498 10501 10505 10509 10513 10517 10521 10524 10527 10530 10533 10535 10538 10541 10544 10547 10549 10550 10551 10552 10553 10555 10557 10559 10561 10562 10563 10562 10561 10561 10561 10561 10560 10559 10559 10558 10557 10556 10555 10554 10554 10554 10553 10552 10551 10549 10547 10545 10543 10541 10538 10536 10534 10532 10530 10528 10526
10407 10409 10412 10414 10417 10420 10423 10425 10426 10426 10429 10433 10437 10439 10441 10444 10448 10450 10452 10456 10460 10463 10467 10472 10476 10480 10484 10487 10489 10492 10497 10500 10504 10508 10512 10516 10520 10523 10525 10527 10530 10533 10536 10539 10541 10542 10544 10545 10546 10547 10549 10550 10552 10555 10556 10556 10555 10555 10554 10555 10555 10553 10552 10552 10551 10551 10550 10548 10548 10548 10549 10548 10546 10544 10542 10541 10539 10537 10534 10532 10530 10528 10525 10524 10522 10520
10401 10404 10407 10409 10412 10414 10417 10419 10420 10421 10425 10430 10432 10434 10436 10439 10443 10445 10448 10451 10455 10459 10463 10467 10471 10475 10478 10481 10484 10488 10492 10495 10499 10503 10507 10511 10515 10517 10519 10522 10525 10528 10531 10533 10534 10536 10537 10539 10540 10542 10543 10544 10546 10549 10549 10549 10549 10548 10548 10548 10548 10546 10546 10546 10545 10545 10544 10542 10542 10543 10543 10541 10540 10538 10537 10535 10533 10531 10529 10526 10524 10521 10519 10518 10516 10514
10396 10400 10402 10405 10407 10410 10412 10413 10415 10417 10420 10424 10426 10428 10431 10434 10436 10440 10443 10446 10450 10453 10457 10461 10465 10469 10472 10475 10479 10482 10486 10490 10494 10498 10502 10506 10509 10511 10514 10517 10520 10522 10524 10526 10528 10529 10531 10532 10534 10536 10537 10539 10541 10542 10542 10542 10542 10541 10541 10541 10541 10541 10541 10540 10540 10539 10537 10536 10535 10536 10536 10534 10533 10532 10530 10529 10527 10525 10523 10520 10518 10515 10513 10512 10510 10508
10392 10396 10398 10400 10402 10405 10407 10408 10410 10412 10415 10418 10420 10423 10426 10428 10431 10434 10437 10441 10444 10448 10452 10456 10460 10463 10467 10470 10473 10477 10481 10485 10489 10493 10497 10500 10503 10506 10509 10512 10514 10516 10518 10520 10522 10523 10525 10527 10529 10530 10531 10532 10534 10535 10535 10535 10534 10534 10534 10535 10536 10536 10535 10535 10534 10533 10531 10530 10529 10529 10529 10528 10526 10525 10524 10522 10521 10519 10516 10514 10511 10509 10507 10505 10504 10502
10388 10391 10393 10395 10398 10400 10402 10404 10405 10408 10411 10413 10416 10419 10422 10425 10428 10430 10433 10437 10440 10443 10447 10451 10454 10458 10462 10465 10469 10473 10477 10481 10485 10489 10492 10495 10498 10501 10504 10506 10508 10510 10512 10514 10516 10518 10520 10521 10522 10523 10524 10526 10528 10528 10528 10527 10527 10527 10529 10530 10530 10530 10529 10528 10528 10527 10526 10525 10523 10522 10522 10522 10520 10518 10517 10515 10514 10512 10509 10507 10505 10503 10501 10499 10498 10497
10384 10386 10388 10391 10393 10395 10397 10399 10401 10403 10406 10409 10412 10415 10418 10421 10424 10427 10430 10433 10436 10439 10443 10446 10450 10454 10458 10461 10465 10469 10473 10477 10481 10484 10487 10490 10493 10495 10498 10500 10502 10505 10507 10509 10511 10512 10514 10514 10515 10516 10518 10520 10521 10521 10521 10521 10520 10521 10523 10525 10524 10523 10523 10522 10521 10521 10520 10519 10517 10515 10514 10513 10512 10511 10510 10508 10507 10505 10503 10501 10499 10497 10495 10494 10492 10491
10380 10382 10384 10387 10389 10391 10392 10394 10396 10399 10402 10405 10407 10410 10414 10417 10419 10422 10425 10428 10432 10435 10439 10443 10447 10450 10454 10458 10462 10465 10469 10472 10476 10479 10482 10485 10487 10490 10492 10495 10497 10499 10501 10503 10505 10506 10507 10508 10509 10510 10512 10514 10515 10515 10515 10514 10513 10514 10517 10518 10518 10518 10517 10516 10515 10514 10513 10512 10511 10509 10508 10507 10506 10504 10503 10502 10501 10499 10498 10495 10493 10491 10490 10488 10486 10485